Watonga, OK

7:59 PM CST on January 16, 2017 (GMT -0600)
Watonga

Weather History for KJWG - June, 2013

Change the Weather History Date:

Saturday, June 8, 2013

  Actual Average Record
Temperature  
Mean Temperature 72 °F -  
Max Temperature 82 °F 89 °F 107 °F (1988)
Min Temperature 63 °F 65 °F 51 °F (2003)
Cooling Degree Days 8    
Growing Degree Days 22 (Base 50)    
Moisture  
Dew Point 60 °F    
Average Humidity 66    
Maximum Humidity 87    
Minimum Humidity 46    
Precipitation  
Precipitation 0.04 in - - ()
Sea Level Pressure  
Sea Level Pressure 29.86 in    
Wind  
Wind Speed - (North)    
Max Wind Speed -    
Max Gust Speed -    
Visibility 10 miles    
Events Rain , Thunderstorm    
Averages and records for this station are not official NWS values.
T = Trace of Precipitation, MM = Missing Value Source: NWS Daily Summary

Daily Weather History Graph

Daily Weather History Graph

Search for Another Location

Airport or City:

Trip Planner

Search our weather history database for the weather conditions in past years. The results will help you decide how hot, cold, wet, or windy it might be!

Date:

Astronomy

Jun. 08, 2013 Rise Set
Actual Time 6:17 AM CDT 8:48 PM CDT
Civil Twilight 5:47 AM CDT 9:18 PM CDT
Nautical Twilight 5:09 AM CDT 9:55 PM CDT
Astronomical Twilight 4:28 AM CDT 10:37 PM CDT
Moon 6:24 AM CDT (6/8) 8:54 PM CDT (6/8)
Length of Visible Light 15h 31m
Length of Day
14h 31m
New Moon, 0% of the Moon is Illuminated
Jun 8
New Moon
Jun 16
First Quarter
Jun 23
Full
Jun 29
Last Quarter
Jul 8
New

Hourly Weather History & Observations

Time (CDT) Temp. Heat Index Dew Point Humidity Pressure Visibility Wind Dir Wind Speed Gust Speed Precip Events Conditions
12:15 AM 68.0 °F - 60.3 °F 76% 29.92 in 10.0 mi North - - N/A   Clear
12:35 AM 68.2 °F - 60.1 °F 75% 29.92 in 10.0 mi North - - N/A   Clear
12:55 AM 68.2 °F - 59.9 °F 75% 29.91 in 10.0 mi North - - N/A   Clear
1:15 AM 68.2 °F - 59.9 °F 75% 29.92 in 10.0 mi North - - N/A   Clear
1:35 AM 68.0 °F - 59.7 °F 75% 29.92 in 10.0 mi North - - N/A   Clear
1:55 AM 67.6 °F - 59.7 °F 76% 29.93 in 10.0 mi North - - N/A   Clear
2:15 AM 67.3 °F - 59.7 °F 77% 29.93 in 10.0 mi North - - N/A   Clear
2:35 AM 66.9 °F - 59.5 °F 77% 29.93 in 10.0 mi North - - N/A   Clear
2:55 AM 65.7 °F - 59.5 °F 81% 29.92 in 10.0 mi North - - N/A   Clear
3:15 AM 65.3 °F - 59.7 °F 82% 29.91 in 10.0 mi North - - N/A   Clear
3:35 AM 64.8 °F - 59.4 °F 83% 29.90 in 10.0 mi North - - N/A   Clear
3:55 AM 64.6 °F - 59.2 °F 83% 29.89 in 10.0 mi North - - N/A   Clear
4:15 AM 64.4 °F - 59.0 °F 83% 29.90 in 10.0 mi North - - N/A   Clear
4:35 AM 63.7 °F - 59.0 °F 85% 29.90 in 10.0 mi North - - N/A   Clear
4:55 AM 63.7 °F - 59.2 °F 85% 29.90 in 10.0 mi North - - N/A   Clear
5:15 AM 63.9 °F - 59.2 °F 85% 29.89 in 10.0 mi North - - N/A   Clear
5:35 AM 63.9 °F - 59.2 °F 85% 29.89 in 10.0 mi North - - N/A   Clear
5:55 AM 64.0 °F - 59.0 °F 84% 29.88 in 10.0 mi North - - N/A   Clear
6:15 AM 63.9 °F - 59.0 °F 84% 29.88 in 10.0 mi North - - N/A   Clear
6:35 AM 64.0 °F - 58.6 °F 83% 29.88 in 10.0 mi North - - N/A   Clear
6:55 AM 64.6 °F - 58.8 °F 82% 29.88 in 10.0 mi North - - N/A   Clear
7:15 AM 65.5 °F - 58.5 °F 78% 29.88 in 10.0 mi North - - N/A   Clear
7:35 AM 66.4 °F - 58.6 °F 76% 29.88 in 10.0 mi North - - N/A   Clear
7:55 AM 67.3 °F - 58.6 °F 74% 29.88 in 10.0 mi North - - N/A   Clear
8:15 AM 67.8 °F - 58.6 °F 72% 29.87 in 10.0 mi North - - N/A   Clear
8:35 AM 68.9 °F - 58.8 °F 70% 29.88 in 10.0 mi North - - N/A   Clear
8:55 AM 70.7 °F - 58.5 °F 65% 29.89 in 10.0 mi North - - N/A   Clear
9:15 AM 71.6 °F - 58.1 °F 62% 29.88 in 10.0 mi North - - N/A   Clear
9:35 AM 73.9 °F - 59.4 °F 60% 29.88 in 10.0 mi North - - N/A   Clear
9:55 AM 73.9 °F - 58.5 °F 58% 29.88 in 10.0 mi North - - N/A   Clear
10:15 AM 73.8 °F - 58.5 °F 59% 29.88 in 10.0 mi North - - N/A   Clear
10:35 AM 73.6 °F - 57.9 °F 58% 29.88 in 10.0 mi North - - N/A   Clear
10:55 AM 74.5 °F - 57.7 °F 56% 29.88 in 10.0 mi North - - N/A   Clear
11:15 AM 74.7 °F - 58.3 °F 57% 29.88 in 10.0 mi North - - N/A   Clear
11:35 AM 74.3 °F - 58.6 °F 58% 29.89 in 10.0 mi North - - N/A   Clear
11:55 AM 74.3 °F - 58.8 °F 58% 29.88 in 10.0 mi North - - N/A   Clear
12:15 PM 73.8 °F - 57.6 °F 57% 29.88 in 10.0 mi North - - N/A   Clear
12:35 PM 74.7 °F - 58.6 °F 57% 29.87 in 10.0 mi North - - N/A   Clear
12:55 PM 76.1 °F - 58.6 °F 55% 29.87 in 10.0 mi North - - N/A   Clear
1:15 PM 77.0 °F - 59.0 °F 54% 29.86 in 10.0 mi North - - N/A   Clear
1:35 PM 77.2 °F - 59.2 °F 54% 29.84 in 10.0 mi North - - N/A   Clear
1:55 PM 77.9 °F - 59.5 °F 53% 29.83 in 10.0 mi North - - N/A   Clear
2:15 PM 80.2 °F 80.8 °F 59.0 °F 48% 29.83 in 10.0 mi North - - N/A   Clear
2:35 PM 81.0 °F 81.5 °F 59.4 °F 48% 29.82 in 10.0 mi North - - N/A   Clear
2:55 PM 80.8 °F 81.1 °F 58.5 °F 46% 29.82 in 10.0 mi North - - N/A   Clear
3:15 PM 82.4 °F 82.7 °F 60.1 °F 47% 29.81 in 10.0 mi North - - N/A   Clear
3:35 PM 80.8 °F 81.1 °F 58.1 °F 46% 29.80 in 10.0 mi North - - N/A   Clear
3:55 PM 80.8 °F 81.2 °F 59.0 °F 47% 29.79 in 10.0 mi North - - N/A   Clear
4:15 PM 81.7 °F 82.0 °F 59.9 °F 47% 29.79 in 10.0 mi North - - N/A   Clear
4:35 PM 81.7 °F 82.0 °F 59.9 °F 47% 29.79 in 10.0 mi North - - N/A   Clear
4:55 PM 81.7 °F 82.2 °F 60.3 °F 48% 29.77 in 10.0 mi North - - N/A   Clear
5:15 PM 82.8 °F 83.3 °F 61.3 °F 48% 29.77 in 10.0 mi North - - N/A   Clear
5:35 PM 82.4 °F 83.2 °F 61.9 °F 50% 29.77 in 10.0 mi North - - N/A   Clear
5:55 PM 82.6 °F 83.4 °F 62.2 °F 50% 29.75 in 10.0 mi North - - N/A   Clear
6:15 PM 82.4 °F 83.4 °F 62.8 °F 51% 29.76 in 10.0 mi North - - N/A   Clear
6:35 PM 81.9 °F 82.9 °F 62.6 °F 52% 29.77 in 10.0 mi North - - N/A   Clear
6:55 PM 80.2 °F 81.4 °F 62.1 °F 54% 29.78 in 10.0 mi North - - N/A   Clear
7:15 PM 79.9 °F - 62.4 °F 55% 29.78 in 10.0 mi North - - N/A   Clear
7:35 PM 79.0 °F - 62.8 °F 57% 29.79 in 10.0 mi North - - N/A   Clear
7:55 PM 78.3 °F - 62.6 °F 58% 29.79 in 10.0 mi North - - N/A   Clear
8:15 PM 77.9 °F - 62.2 °F 58% 29.80 in 10.0 mi North - - N/A   Clear
8:35 PM 77.2 °F - 62.6 °F 61% 29.80 in 10.0 mi North - - N/A   Clear
8:55 PM 76.6 °F - 62.6 °F 62% 29.82 in 10.0 mi North - - N/A   Clear
9:15 PM 75.6 °F - 63.1 °F 65% 29.83 in 10.0 mi North - - N/A   Clear
9:35 PM 74.8 °F - 63.7 °F 68% 29.88 in 10.0 mi North - - N/A   Mostly Cloudy
9:55 PM 75.4 °F - 63.7 °F 67% 29.92 in 10.0 mi North - - N/A Thunderstorm Thunderstorm
10:15 PM 72.3 °F - 65.3 °F 78% 29.91 in 10.0 mi North - - 0.02 in Rain , Thunderstorm Light Thunderstorms and Rain
10:35 PM 69.8 °F - 65.8 °F 87% 29.92 in 10.0 mi North - - 0.02 in Rain , Thunderstorm Light Thunderstorms and Rain
10:55 PM 68.7 °F - 64.6 °F 87% 29.88 in 10.0 mi North - - 0.04 in Rain , Thunderstorm Light Thunderstorms and Rain
11:15 PM 67.5 °F - 62.6 °F 84% 29.84 in 10.0 mi North - - N/A Rain Light Rain
11:35 PM 66.6 °F - 62.4 °F 86% 29.81 in 10.0 mi North - - N/A Rain Light Rain
11:55 PM 67.3 °F - 62.2 °F 84% 29.83 in 10.0 mi North - - N/A   Light Drizzle